Weather reports worldwide

Advertisment
Braunlage, Germany (10452): temperature & dewpoint: 01.08.2020 02:00:00 - 07.08.2020 02:00:00 (CEST)Braunlage, Germany (10452): temperature 5cm & temperature -5cm: 01.08.2020 02:00:00 - 07.08.2020 02:00:00 (CEST)Braunlage, Germany (10452): temperature -20cm & temperature -100cm: 01.08.2020 02:00:00 - 07.08.2020 02:00:00 (CEST)Braunlage, Germany (10452): reduced air pressure: 01.08.2020 02:00:00 - 07.08.2020 02:00:00 (CEST)Braunlage, Germany (10452): visibility: 01.08.2020 02:00:00 - 07.08.2020 02:00:00 (CEST)Braunlage, Germany (10452): precipitation: 01.08.2020 02:00:00 - 07.08.2020 02:00:00 (CEST)
Date & Time tt [°C] td [°C] tt 5cm [°C] tt -5cm [°C] tt -20cm [°C] tt -100cm [°C] ppp [hPa] vv [km] rr [mm]
07.08.2020 02:00:00 17,4 8,7 13,1 18,6 21,4 14,9 1022,5 75 0,0
07.08.2020 01:00:00 18,4 7,3 13,7 19,4 21,8 14,9 1022,2 75 0,0
07.08.2020 00:00:00 18,8 6,0 14,1 20,4 22,2 14,9 1022,3 69 0,0
06.08.2020 23:00:00 19,3 4,3 14,5 21,7 22,5 14,9 1022,0 70 0,0
06.08.2020 22:00:00 20,0 5,4 16,2 23,4 22,7 14,9 1021,7 75 0,0
06.08.2020 21:00:00 21,2 7,4 17,6 25,4 22,8 14,9 1021,0 62 0,0
06.08.2020 20:00:00 23,6 6,9 22,3 27,7 22,6 14,9 1020,0 75 0,0
06.08.2020 19:00:00 25,2 6,9 26,8 30,6 22,2 14,9 1019,3 75 0,0
06.08.2020 18:00:00 26,0 6,5 28,5 31,7 21,6 14,9 1019,1 64 0,0
06.08.2020 17:00:00 26,0 7,3 30,1 32,1 20,9 14,9 1019,0 67 0,0
06.08.2020 16:00:00 26,1 6,7 31,8 32,2 20,1 14,9 1019,2 56 0,0
06.08.2020 15:00:00 25,8 5,9 32,4 31,2 19,2 14,9 1019,4 75 0,0
06.08.2020 14:00:00 26,1 8,6 31,6 29,5 18,5 14,9 1019,4 58 0,0
06.08.2020 13:00:00 25,2 8,4 29,7 27,5 17,8 14,9 1019,8 67 0,0
06.08.2020 12:00:00 24,2 6,3 29,1 24,9 17,4 14,9 1020,2 75 0,0
06.08.2020 11:00:00 23,4 6,8 27,2 22,1 17,1 14,9 1020,4 75 0,0
06.08.2020 10:00:00 22,7 7,0 25,2 19,2 17,1 14,9 1020,3 72 0,0
06.08.2020 09:00:00 21,9 8,7 23,0 16,3 17,2 14,9 1020,3 74 0,0
06.08.2020 08:00:00 18,8 11,5 18,7 14,1 17,5 14,9 1020,6 51 0,0
06.08.2020 07:00:00 15,2 8,5 11,4 13,6 17,8 14,9 1021,1 75 0,0
06.08.2020 06:00:00 12,9 6,7 9,0 13,9 18,1 14,9 1021,4 75 0,0
06.08.2020 05:00:00 12,9 7,6 9,3 14,4 18,5 14,9 1021,0 71 0,0
06.08.2020 04:00:00 13,0 7,5 9,5 15,0 18,8 14,9 1020,9 66 0,0
06.08.2020 03:00:00 13,6 7,4 10,3 15,7 19,2 14,9 1020,6 67 0,0
06.08.2020 02:00:00 14,3 7,5 11,1 16,4 19,5 15,0 1020,4 75 0,0
06.08.2020 01:00:00 14,2 7,6 11,2 17,2 19,9 15,0 1020,3 68 0,0
06.08.2020 00:00:00 14,5 7,9 11,3 18,2 20,2 15,0 1020,0 74 0,0
05.08.2020 23:00:00 14,9 8,8 12,2 19,4 20,4 15,0 1019,8 75 0,0
05.08.2020 22:00:00 16,0 8,8 13,3 20,9 20,6 15,0 1019,2 75 0,0
05.08.2020 21:00:00 18,0 8,6 15,1 22,9 20,5 15,0 1018,2 75 0,0
05.08.2020 20:00:00 20,4 8,3 17,8 25,2 20,3 15,0 1017,4 75 0,0
05.08.2020 19:00:00 22,4 7,1 24,2 27,8 19,8 15,0 1016,6 75 0,0
05.08.2020 18:00:00 22,8 7,6 25,6 28,6 19,2 15,0 1016,4 69 0,0
05.08.2020 17:00:00 22,3 8,0 26,3 28,7 18,5 15,0 1016,5 73 0,0
05.08.2020 16:00:00 22,8 8,0 27,0 28,2 17,7 15,0 1016,5 75 0,0
05.08.2020 15:00:00 22,4 7,9 26,8 26,8 17,0 15,0 1016,7 75 0,0
05.08.2020 14:00:00 21,6 8,2 26,6 24,8 16,4 15,0 1017,0 64 0,0
05.08.2020 13:00:00 20,0 6,9 23,5 22,6 15,9 15,0 1017,6 75 0,0
05.08.2020 12:00:00 19,4 6,5 22,7 20,2 15,5 15,0 1018,0 75 0,0
05.08.2020 11:00:00 19,2 7,5 23,0 18,2 15,3 15,0 1017,9 75 0,0
05.08.2020 10:00:00 17,5 7,8 19,7 15,3 15,3 15,0 1018,3 75 0,0
05.08.2020 09:00:00 15,8 7,7 17,1 13,0 15,4 15,0 1018,8 69 0,0
05.08.2020 08:00:00 14,3 7,1 14,4 11,4 15,7 15,0 1018,7 69 0,0
05.08.2020 07:00:00 10,5 7,2 8,0 11,0 16,0 15,0 1019,2 70 0,0
05.08.2020 06:00:00 9,0 6,0 6,5 11,2 16,3 15,0 1019,6 72 0,0
05.08.2020 05:00:00 9,3 6,2 6,8 11,6 16,6 15,0 1019,3 75 0,0
05.08.2020 04:00:00 9,3 6,3 6,7 12,2 16,9 15,0 1019,1 75 0,0
05.08.2020 03:00:00 9,6 6,5 6,9 12,8 17,2 15,0 1019,2 75 0,0
05.08.2020 02:00:00 9,8 6,7 8,2 13,5 17,5 15,0 1019,0 75 0,0
05.08.2020 01:00:00 10,5 6,9 8,9 14,0 17,8 15,0 1018,9 69 0,0
05.08.2020 00:00:00 9,8 6,8 8,4 14,4 18,1 15,0 1019,3 75 0,0
04.08.2020 23:00:00 10,3 6,5 8,1 15,4 18,4 15,0 1019,1 75 0,0
04.08.2020 22:00:00 11,0 6,5 8,8 16,7 18,6 15,0 1018,7 74 0,0
04.08.2020 21:00:00 13,6 6,3 10,7 18,3 18,6 15,0 1017,4 75 0,0
04.08.2020 20:00:00 16,2 5,6 14,7 20,2 18,5 15,0 1016,3 75 0,0
04.08.2020 19:00:00 17,7 5,6 20,1 21,5 18,3 15,0 1015,8 73 0,0
04.08.2020 18:00:00 16,6 6,4 18,8 21,8 18,0 15,0 1015,9 75 0,0
04.08.2020 17:00:00 17,0 6,3 19,7 22,7 17,7 15,0 1015,5 75 0,0
04.08.2020 16:00:00 17,5 7,3 22,9 21,4 17,3 15,0 1015,4 60 0,0
04.08.2020 15:00:00 16,0 7,0 17,7 22,1 16,8 15,0 1015,6 75 0,0
04.08.2020 14:00:00 16,8 5,3 22,5 22,3 16,3 15,0 1015,1 75 0,0
04.08.2020 13:00:00 17,0 5,0 22,1 20,2 15,9 15,0 1014,6 75 0,0
04.08.2020 12:00:00 16,3 7,0 19,8 18,4 15,7 15,0 1014,4 75 0,0
04.08.2020 11:00:00 15,8 6,4 18,9 17,0 15,6 15,0 1014,5 75 0,0
04.08.2020 10:00:00 15,6 7,2 18,6 14,9 15,6 15,0 1014,0 75 0,0
04.08.2020 09:00:00 13,6 8,4 15,8 13,1 15,7 15,0 1014,3 75 0,0
04.08.2020 08:00:00 13,0 8,6 13,5 12,2 15,9 15,0 1014,1 56 0,0
04.08.2020 07:00:00 11,7 8,5 10,1 11,6 16,1 15,0 1014,0 72 0,0
04.08.2020 06:00:00 9,8 8,0 7,5 11,8 16,4 15,0 1013,9 60 0,0
04.08.2020 05:00:00 10,1 8,1 8,4 12,1 16,6 15,0 1013,7 75 0,0
04.08.2020 04:00:00 11,2 8,2 8,6 12,5 16,9 15,0 1013,3 70 0,0
04.08.2020 03:00:00 11,6 8,3 9,9 12,9 17,2 15,0 1013,5 66 0,0
04.08.2020 02:00:00 12,2 8,4 10,6 13,1 17,5 15,0 1013,2 74 0,0
04.08.2020 01:00:00 12,6 8,3 11,1 13,5 17,8 15,0 1012,9 75 0,0
04.08.2020 00:00:00 12,6 7,8 10,9 14,0 18,1 15,0 1013,0 75 0,0
03.08.2020 23:00:00 11,4 7,2 9,5 14,8 18,4 15,0 1012,9 70 0,0
03.08.2020 22:00:00 11,3 7,6 9,2 15,9 18,6 15,0 1012,7 75 0,0
03.08.2020 21:00:00 13,0 7,4 10,8 17,3 18,7 15,0 1011,8 75 0,0
03.08.2020 20:00:00 15,8 7,6 15,1 18,7 18,7 15,0 1011,1 74 0,0
03.08.2020 19:00:00 16,3 6,8 16,8 20,1 18,6 15,0 1011,0 65 0,0
03.08.2020 18:00:00 17,2 6,2 19,8 20,7 18,5 14,9 1010,9 75 0,0
03.08.2020 17:00:00 16,8 5,9 18,8 20,2 18,3 14,9 1011,1 75 0,0
03.08.2020 16:00:00 16,7 7,5 19,1 20,3 18,1 14,9 1011,5 54 0,0
03.08.2020 15:00:00 16,3 6,8 18,5 20,5 17,8 14,9 1011,9 48 0,0
03.08.2020 14:00:00 16,2 7,2 18,2 21,0 17,5 14,9 1012,0 48 0,0
03.08.2020 13:00:00 16,4 6,0 19,9 20,8 17,2 14,9 1012,0 59 0,0
03.08.2020 12:00:00 15,5 8,2 19,8 18,6 17,0 14,9 1012,7 55 0,0
03.08.2020 11:00:00 15,2 6,7 17,4 18,1 17,0 14,9 1013,1 75 0,0
03.08.2020 10:00:00 14,3 8,5 16,7 15,0 17,1 14,9 1013,4 69 0,0
03.08.2020 09:00:00 12,7 9,0 12,9 14,6 17,2 14,9 1014,0 44 0,0
03.08.2020 08:00:00 12,1 9,0 12,5 13,8 17,4 14,9 1014,0 34 0,0
03.08.2020 07:00:00 11,9 9,3 11,9 13,7 17,7 14,8 1013,7 49 0,0
03.08.2020 06:00:00 11,5 9,6 10,2 13,8 17,9 14,8 1013,6 42 0,0
03.08.2020 05:00:00 12,0 9,8 10,7 14,4 18,2 14,8 1013,8 42 0,0
03.08.2020 04:00:00 13,0 10,4 12,6 14,9 18,5 14,8 1013,8 41 0,0
03.08.2020 03:00:00 13,2 10,9 12,8 15,0 18,7 14,8 1014,0 30 0,0
03.08.2020 02:00:00 13,5 11,3 12,6 15,5 19,0 14,8 1013,9 43 0,0
03.08.2020 01:00:00 14,2 11,4 13,9 15,8 19,3 14,8 1013,9 44 0,0
03.08.2020 00:00:00 14,1 11,2 13,0 16,5 19,5 14,8 1014,0 45 0,0
02.08.2020 23:00:00 15,0 12,4 14,2 17,2 19,8 14,8 1013,7 43 0,0
02.08.2020 22:00:00 15,6 13,0 14,9 18,1 19,9 14,8 1013,4 42 0,0
02.08.2020 21:00:00 15,8 13,3 14,7 19,1 20,0 14,8 1013,0 46 0,0
02.08.2020 20:00:00 17,3 12,6 16,5 20,1 20,1 14,7 1012,9 64 0,0
02.08.2020 19:00:00 17,5 12,7 17,7 21,1 20,0 14,7 1012,6 50 0,0
02.08.2020 18:00:00 17,7 13,0 18,6 21,4 20,0 14,7 1012,9 65 0,0
02.08.2020 17:00:00 18,6 13,9 19,5 21,7 19,9 14,7 1012,3 59 0,0
02.08.2020 16:00:00 17,4 13,7 18,2 20,2 20,0 14,7 1012,8 69 0,0
02.08.2020 15:00:00 16,4 15,6 17,0 20,3 20,0 14,7 1013,5 15 0,0
02.08.2020 14:00:00 16,3 15,6 17,0 20,7 19,9 14,7 1013,4 8 0,2
02.08.2020 13:00:00 17,5 16,5 18,1 21,5 19,8 14,7 1012,9 18 0,2
02.08.2020 12:00:00 18,4 15,9 19,7 21,6 19,7 14,7 1012,9 35 0,0
02.08.2020 11:00:00 17,9 16,6 19,2 20,2 19,7 14,7 1013,1 26 1,4
02.08.2020 10:00:00 18,1 16,5 18,7 19,8 19,8 14,6 1012,8 27 0,2
02.08.2020 09:00:00 17,6 16,5 18,0 19,0 20,0 14,6 1012,5 8 0,0
02.08.2020 08:00:00 17,4 16,7 17,2 18,5 20,2 14,6 1012,7 4,2 5,1
02.08.2020 07:00:00 18,6 15,2 18,2 18,3 20,4 14,6 1011,9 28 0,0
02.08.2020 06:00:00 16,0 12,5 14,6 18,2 20,7 14,6 1012,7 52 0,0
02.08.2020 05:00:00 16,5 13,2 15,3 18,7 21,0 14,6 1012,6 61 0,0
02.08.2020 04:00:00 16,6 13,2 15,1 19,1 21,3 14,6 1013,2 49 0,0
02.08.2020 03:00:00 17,9 13,7 15,9 19,6 21,6 14,6 1013,3 62 0,0
02.08.2020 02:00:00 16,9 13,7 16,0 20,1 21,9 14,6 1013,9 49 0,0
02.08.2020 01:00:00 17,3 13,6 14,7 21,0 22,2 14,6 1014,1 49 0,0
02.08.2020 00:00:00 18,0 13,2 16,8 22,0 22,4 14,6 1014,3 55 0,0
01.08.2020 23:00:00 19,5 13,8 18,7 22,9 22,6 14,6 1013,9 53 0,0
01.08.2020 22:00:00 20,7 13,7 20,1 23,9 22,8 14,6 1013,8 59 0,0
01.08.2020 21:00:00 22,2 13,0 21,2 24,8 22,9 14,6 1013,0 66 0,0
01.08.2020 20:00:00 23,2 13,4 22,7 25,9 22,9 14,5 1013,0 62 0,0
01.08.2020 19:00:00 23,4 13,7 23,7 26,8 22,8 14,5 1013,3 69 0,0
01.08.2020 18:00:00 23,8 13,4 24,3 28,1 22,5 14,5 1013,6 75 0,0
01.08.2020 17:00:00 24,7 12,7 25,5 30,2 21,9 14,5 1013,4 62 0,0
01.08.2020 16:00:00 27,1 13,1 29,6 32,8 21,2 14,5 1012,6 63 0,0
01.08.2020 15:00:00 28,4 13,1 33,8 30,8 20,5 14,5 1012,3 52 0,0
01.08.2020 14:00:00 27,3 11,6 30,3 30,4 19,8 14,5 1012,7 60 0,0
01.08.2020 13:00:00 27,7 11,4 31,7 28,9 19,2 14,5 1012,6 75 0,0
01.08.2020 12:00:00 26,2 11,6 30,1 26,5 18,7 14,5 1013,4 75 0,0
01.08.2020 11:00:00 24,6 11,0 28,6 23,7 18,5 14,5 1013,8 75 0,0
01.08.2020 10:00:00 23,5 10,7 25,7 21,2 18,4 14,5 1013,9 70 0,0
01.08.2020 09:00:00 22,1 10,2 24,6 18,2 18,6 14,5 1014,5 64 0,0
01.08.2020 08:00:00 20,0 11,1 21,2 16,0 18,9 14,5 1015,1 59 0,0
01.08.2020 07:00:00 15,3 10,5 13,1 15,6 19,2 14,5 1016,5 65 0,0
01.08.2020 06:00:00 13,7 10,0 11,5 15,9 19,6 14,5 1017,1 75 0,0
01.08.2020 05:00:00 16,0 10,4 12,1 16,4 19,9 14,5 1016,5 75 0,0
01.08.2020 04:00:00 15,3 10,5 12,3 17,1 20,3 14,5 1017,2 70 0,0
01.08.2020 03:00:00 15,0 10,4 12,7 17,8 20,7 14,5 1017,8 75 0,0
01.08.2020 02:00:00 16,2 10,4 13,1 18,6 21,1 14,5 1017,8 71 0,0

tt = temperature
td = dewpoint
tt 5cm = temperature 5cm
tt -5cm = temperature -5cm
tt -20cm = temperature -20cm
tt -100cm = temperature -100cm
ppp = reduced air pressure
vv = visibility
rr = precipitation

Next stations